Погода в Гапшима

Россия / Республика Дагестан     42°12′40″N   47°19′31″E
темп.,
°C
ветер,
м/с
пор.,
м/с
влажн.,
%
обл.,
%
осадки,
мм/ч
давл.,
гПа
погр.,
м
27 февраля, сб
сб2700:00−5ююз2269100 0.0 102421
03:00−6ююз226575 0.0 102321
06:00−6ююз22630 0.0 102222
09:00−2ююз11650 0.0 102162
12:00+1ссз00870 0.0 1019211
15:00+1зюз01890 0.0 1017211
18:00−4ююз11780 0.0 101721
21:00−5ююз22710 0.0 101722
28 февраля, вс
вс2800:00−6ююз22650 0.0 101622
03:00−6ююз22610 0.0 101523
06:00−7ююз22600 0.0 101624
09:00−1ююв23690 0.0 1015146
12:00+1вюв22890 0.0 1014251
15:00+1вюв22920 0.0 1014229
18:00−3всв119838 0.1 101558
21:00−4ю119370 1.0 101745
1 марта, пн
пн100:00−6ююв2289100 0.6 101838
03:00−7ю228999 1.0 101835
06:00−6ююв1294100 0.6 102050
09:00−4ссв2296100 3.2 1022244
12:00−4св2395100 1.9 1023386
15:00−4св2294100 3.8 1023367
18:00−7в1196100 0.8 102523
21:00−10ю238599 0.9 102722
2 марта, вт
вт200:00−11ююз227125 0.0 102821
03:00−11ююз116953 0.0 102721
06:00−13ююз117064 0.0 102821
09:00−8зюз117572 0.0 1029115
12:00−5ссв118242 0.0 1027468
15:00−4ссв118167 0.1 1025506
18:00−9ююз118871 0.0 102521
21:00−11ююз336735 0.0 102523
3 марта, ср
ср300:00−11ююз23580 0.0 102323
03:00−12ююз33570 0.0 102122
06:00−11юз226172 0.0 102021
09:00−7юз116686 0.0 102073
12:00−4ссз2265100 0.0 1018587
15:00−3юв2273100 0.1 1018461
18:00−6всв1197100 0.9 102053
21:00−8ююз2292100 2.1 102268